This is the latest recevied weather packets stored in our database for station/object EMGATE. If no packets are shown the sender has not sent any weather packets the latest 10 day(s).
| Time | Temp. | Humidity | Pressure | Rain* | Wind** | Luminosity | Snow |
|---|---|---|---|---|---|---|---|
| 1777508641 | 14.44° C | 60% | 1007.4 hPa | 0 mm | - | - | - |
| 1777507741 | 14.44° C | 59% | 1007.4 hPa | 0 mm | - | - | - |
| 1777506841 | 15° C | 59% | 1007.4 hPa | 0 mm | - | - | - |
| 1777505941 | 15° C | 59% | 1007.4 hPa | 0 mm | - | - | - |
| 1777505041 | 15° C | 58% | 1007.4 hPa | 0 mm | - | - | - |
| 1777504141 | 15.56° C | 58% | 1007.5 hPa | 0 mm | - | - | - |
| 1777503293 | 15.56° C | 57% | 1007.7 hPa | 0 mm | - | - | - |
| 1777503241 | 15.56° C | 57% | 1007.7 hPa | 0 mm | - | - | - |
| 1777502341 | 15.56° C | 57% | 1008 hPa | 0 mm | - | - | - |
| 1777501441 | 15.56° C | 57% | 1008.2 hPa | 0 mm | - | - | - |
| 1777500541 | 16.11° C | 56% | 1008.3 hPa | 0 mm | - | - | - |
| 1777499641 | 16.11° C | 56% | 1008.5 hPa | 0 mm | - | - | - |
| 1777498741 | 16.67° C | 55% | 1009.1 hPa | 0 mm | - | - | - |
| 1777497841 | 16.67° C | 55% | 1009.2 hPa | 0 mm | - | - | - |
| 1777496941 | 16.67° C | 54% | 1009.3 hPa | 0 mm | - | - | - |
| 1777496041 | 17.22° C | 53% | 1009.4 hPa | 0 mm | - | - | - |
| 1777495141 | 17.22° C | 52% | 1009.5 hPa | 0 mm | - | - | - |
| 1777494241 | 17.22° C | 53% | 1009.6 hPa | 0 mm | - | - | - |
| 1777493341 | 17.22° C | 53% | 1009.6 hPa | 0 mm | - | - | - |
| 1777492441 | 16.67° C | 51% | 1009.9 hPa | 0 mm | - | - | - |
| 1777491541 | 17.22° C | 52% | 1010.2 hPa | 0 mm | - | - | - |
| 1777490641 | 17.22° C | 52% | 1010.3 hPa | 0 mm | - | - | - |
| 1777489741 | 17.22° C | 52% | 1010.3 hPa | 0 mm | - | - | - |
| 1777488841 | 17.22° C | 52% | 1010.4 hPa | 0 mm | - | - | - |
| 1777487941 | 17.22° C | 51% | 1010.5 hPa | 0 mm | - | - | - |
* Rain latest hour (hover to see other rain measurements)
** Current wind speed in m/s (hover to see current wind gust speed)